TimePDT,TemperatureF,Dew PointF,Humidity,Sea Level PressureIn,VisibilityMPH,Wind Direction,Wind SpeedMPH,Gust SpeedMPH,PrecipitationIn,Events,Conditions,WindDirDegrees,DateUTC
12:53 AM,46.0,34.0,63,30.00,10.0,SSW,8.1,-,N/A,,Clear,200,2014-04-03 07:53:00
1:53 AM,45.0,33.1,63,29.99,10.0,South,3.5,-,N/A,,Clear,190,2014-04-03 08:53:00
2:53 AM,45.0,32.0,60,30.00,10.0,Calm,Calm,-,N/A,,Clear,0,2014-04-03 09:53:00
3:53 AM,44.1,33.1,65,30.00,10.0,SSW,6.9,-,N/A,,Clear,210,2014-04-03 10:53:00
4:53 AM,39.9,32.0,73,30.01,10.0,ESE,5.8,-,N/A,,Clear,110,2014-04-03 11:53:00
5:53 AM,41.0,33.1,73,30.01,10.0,South,6.9,-,N/A,,Clear,180,2014-04-03 12:53:00
6:53 AM,39.0,33.1,79,30.02,10.0,SE,6.9,-,N/A,,Clear,130,2014-04-03 13:53:00
7:53 AM,43.0,36.0,76,30.02,10.0,East,3.5,-,N/A,,Clear,90,2014-04-03 14:53:00
8:53 AM,50.0,35.1,57,30.01,10.0,SSE,5.8,-,N/A,,Clear,150,2014-04-03 15:53:00
9:53 AM,54.0,35.1,49,30.01,10.0,SE,4.6,-,N/A,,Clear,140,2014-04-03 16:53:00
10:53 AM,59.0,35.1,41,30.00,10.0,South,8.1,-,N/A,,Clear,190,2014-04-03 17:53:00
11:53 AM,62.1,33.1,34,29.99,10.0,SSW,8.1,-,N/A,,Clear,200,2014-04-03 18:53:00
12:53 PM,64.0,32.0,30,29.97,10.0,SSW,9.2,-,N/A,,Clear,210,2014-04-03 19:53:00
1:53 PM,64.0,30.0,28,29.95,10.0,SW,11.5,-,N/A,,Clear,230,2014-04-03 20:53:00
2:53 PM,64.0,30.9,29,29.93,10.0,West,8.1,-,N/A,,Clear,260,2014-04-03 21:53:00
3:53 PM,64.0,30.9,29,29.91,10.0,SSW,8.1,-,N/A,,Clear,210,2014-04-03 22:53:00
4:53 PM,63.0,32.0,31,29.91,10.0,SSW,12.7,-,N/A,,Mostly Cloudy,210,2014-04-03 23:53:00
5:53 PM,62.1,34.0,35,29.90,10.0,SSW,12.7,-,N/A,,Overcast,210,2014-04-04 00:53:00
6:53 PM,60.1,35.1,39,29.90,10.0,SSW,9.2,-,N/A,,Overcast,200,2014-04-04 01:53:00
8:53 PM,55.9,39.0,53,29.90,10.0,SSE,6.9,-,N/A,,Overcast,150,2014-04-04 03:53:00
9:53 PM,55.0,39.9,57,29.90,10.0,ESE,11.5,-,N/A,,Overcast,120,2014-04-04 04:53:00
10:53 PM,53.1,41.0,64,29.91,10.0,SE,11.5,-,N/A,,Overcast,140,2014-04-04 05:53:00
11:53 PM,52.0,42.1,69,29.91,10.0,Calm,Calm,-,N/A,,Overcast,0,2014-04-04 06:53:00